Location: St. Andrews
(45.0670°N, 67.0330°W)
Time: 17:43:59
(UTC-03:00)

Amateur Radio Satellites - All Passes

Search period start: 26 September 2016 17:13
Search period end: 27 September 2016 17:13
Location: St. Andrews, 45.0670°N, 67.0330°W

Satellite Date Start Highest point End Downlink Frequencies (MHz)
Time Altitude Azimuth
KKS-1 26 Sep 17:18:31 17:22:49 48° 100° (E) 17:27:05 437.445
NOAA 15 26 Sep 17:21:52 17:25:33 19° 59° (ENE) 17:29:15 137.62
Cubesat XI-IV 26 Sep 17:32:09 17:35:49 19° 59° (ENE) 17:39:29 437.490
CUTE-I 26 Sep 17:32:47 17:36:29 20° 60° (ENE) 17:40:13 437.470
AIST 1 26 Sep 17:37:52 17:42:09 66° 264° (W) 17:46:22
SO-50 26 Sep 17:38:29 17:43:04 41° 314° (NW) 17:47:35 436.795
HORYU 2 26 Sep 17:38:33 17:42:58 79° 75° (ENE) 17:47:24 437.375
O/OREOS (USA 219) 26 Sep 17:41:43 17:46:13 50° 61° (ENE) 17:50:41 437.305
LilacSat-2 26 Sep 17:45:49 17:48:05 16° 64° (ENE) 17:50:23 437.200
ITUPSAT 1 26 Sep 17:49:26 17:51:59 14° 302° (WNW) 17:54:32 437.325
STARS 26 Sep 17:56:38 18:00:58 59° 101° (ESE) 18:05:16 437.465
CUBESAT XI-V 26 Sep 17:56:41 18:00:43 27° 94° (E) 18:04:41 437.345
NOAA 18 26 Sep 17:59:13 18:03:47 28° 62° (ENE) 18:08:22 137.9125
AO-7 26 Sep 18:06:22 18:11:49 19° 271° (W) 18:17:19 29.400- 29.500
Cosmos 2504 26 Sep 18:07:39 18:12:37 20° 280° (W) 18:17:46 435.465 / 435.565
Cosmos 2491 26 Sep 18:08:16 18:14:55 23° 299° (WNW) 18:21:39 435.465 / 435.565
MOZHAYETS 4 26 Sep 18:18:31 18:22:31 29° 293° (WNW) 18:26:30
GONETS M04 26 Sep 18:38:29 18:43:34 16° 54° (NE) 18:48:36
GOMX 1 26 Sep 18:39:23 18:44:47 76° 75° (ENE) 18:49:58 467.674
BRITE-PL 26 Sep 18:41:46 18:47:21 53° 261° (W) 18:52:50 437.365/2234.400
CUSAT 1 26 Sep 18:44:02 18:48:03 17° 77° (ENE) 18:52:30 437.405
HO-68 26 Sep 18:54:41 19:00:17 26° 56° (NE) 19:05:53 435.675
KKS-1 26 Sep 18:55:55 18:59:03 19° 297° (WNW) 19:02:11 437.445
CINEMA 3 26 Sep 18:58:09 19:00:32 14° 62° (ENE) 19:02:52 145.822/145.860
NOAA 15 26 Sep 18:59:31 19:04:48 67° 258° (WSW) 19:10:08 137.62
DOVE 4 26 Sep 19:09:10 19:14:10 66° 74° (ENE) 19:18:55 437.250
Cubesat XI-IV 26 Sep 19:10:05 19:15:21 68° 257° (WSW) 19:20:41 437.490
CUTE-I 26 Sep 19:10:45 19:16:01 66° 258° (WSW) 19:21:21 437.470
LilacSat-2 26 Sep 19:18:28 19:22:03 43° 261° (W) 19:25:41 437.200
HORYU 2 26 Sep 19:18:57 19:20:04 11° 271° (W) 19:21:11 437.375
O/OREOS (USA 219) 26 Sep 19:22:02 19:25:14 19° 260° (W) 19:28:25 437.305
SO-50 26 Sep 19:23:11 19:24:48 11° 335° (NNW) 19:26:24 436.795
Cosmos 2499 26 Sep 19:28:20 19:34:11 24° 65° (ENE) 19:40:17 435.465 / 435.565
CUBESAT XI-V 26 Sep 19:33:52 19:38:07 35° 292° (WNW) 19:42:21 437.345
STARS 26 Sep 19:34:13 19:36:52 16° 299° (WNW) 19:39:30 437.465
NOAA 18 26 Sep 19:38:59 19:44:13 46° 261° (W) 19:49:28 137.9125
RS-15 26 Sep 19:39:30 19:48:40 28° 101° (ESE) 19:58:08 29.354- 29.394
CUTE 1.7 + AOD 2 26 Sep 19:39:59 19:43:29 26° 67° (ENE) 19:47:00 437.475
CANX-2 26 Sep 19:40:42 19:44:22 29° 68° (ENE) 19:48:05 2200.000
SEEDS 26 Sep 19:44:42 19:47:51 21° 65° (ENE) 19:51:01 437.485
DANDE 26 Sep 19:59:06 20:03:10 23° 81° (E) 20:08:06 436.750
STRAND 1 26 Sep 19:59:22 20:03:34 25° 94° (E) 20:07:44 437.568
AAUSAT CUBESAT 2 26 Sep 20:11:39 20:14:50 22° 66° (ENE) 20:18:03 437.432
CUBEBUG 2 26 Sep 20:14:47 20:18:06 23° 66° (ENE) 20:21:22 437.445
GOMX 1 26 Sep 20:20:11 20:23:19 16° 271° (W) 20:26:25 467.674
CUSAT 1 26 Sep 20:22:30 20:28:42 89° 99° (E) 20:36:22 437.405
FUNcube-1 26 Sep 20:29:06 20:31:05 13° 61° (ENE) 20:33:05 145.935
CINEMA 3 26 Sep 20:32:45 20:37:14 65° 259° (W) 20:41:32 145.822/145.860
GONETS M04 26 Sep 20:33:30 20:42:21 69° 78° (ENE) 20:51:03
UWE-3 26 Sep 20:35:54 20:39:19 25° 67° (ENE) 20:42:44 435.000/436.395/437.385
HO-68 26 Sep 20:40:11 20:47:21 75° 255° (WSW) 20:54:33 435.675
DOVE 4 26 Sep 20:49:13 20:52:13 16° 270° (W) 20:55:09 437.250
COMPASS 1 26 Sep 20:53:15 20:57:24 75° 76° (ENE) 21:01:37 437.405
ZACube-1 26 Sep 21:08:12 21:11:57 34° 69° (ENE) 21:15:43 437.345
Oscar 11 26 Sep 21:08:49 21:12:44 36° 70° (ENE) 21:16:43 145.826/435.025
CUTE 1.7 + AOD 2 26 Sep 21:15:26 21:19:11 31° 264° (W) 21:23:01 437.475
CANX-2 26 Sep 21:16:36 21:20:12 27° 266° (W) 21:23:50 2200.000
SEEDS 26 Sep 21:19:21 21:23:17 39° 262° (W) 21:27:17 437.485
Cosmos 2499 26 Sep 21:20:32 21:27:59 75° 265° (W) 21:36:01 435.465 / 435.565
PRISM 26 Sep 21:37:34 21:40:44 21° 94° (E) 21:43:52 437.425
STRAND 1 26 Sep 21:38:02 21:42:55 45° 291° (WNW) 21:47:49 437.568
AO-85 26 Sep 21:38:58 21:43:28 30° 115° (ESE) 21:47:45 145.980
DANDE 26 Sep 21:40:06 21:45:09 56° 287° (WNW) 21:51:53 436.750
HUMSAT D 26 Sep 21:42:22 21:45:05 17° 63° (ENE) 21:47:49 437.325/437.525
DELFI C3 26 Sep 21:43:33 21:47:08 33° 70° (ENE) 21:50:46 145.870
AAUSAT CUBESAT 2 26 Sep 21:46:15 21:50:06 36° 263° (W) 21:54:00 437.432
RS-15 26 Sep 21:47:52 21:59:36 87° 305° (NW) 22:11:57 29.354- 29.394
CUBEBUG 2 26 Sep 21:50:44 21:54:34 34° 263° (W) 21:58:22 437.445
ISS 26 Sep 21:51:48 21:54:56 44° 143° (SE) 21:58:04 145.825
FUNcube-1 26 Sep 22:02:44 22:06:50 64° 259° (W) 22:10:57 145.935
CUSAT 1 26 Sep 22:07:07 22:11:59 21° 303° (WNW) 22:17:27 437.405
UWE-3 26 Sep 22:12:01 22:15:42 30° 264° (W) 22:19:22 435.000/436.395/437.385
GONETS M04 26 Sep 22:31:20 22:38:23 28° 279° (W) 22:45:24
COMPASS 1 26 Sep 22:32:43 22:33:29 10° 272° (W) 22:34:15 437.405
HO-68 26 Sep 22:32:58 22:36:15 13° 274° (W) 22:39:32 435.675
TIGRISAT 26 Sep 22:35:08 22:36:53 12° 89° (E) 22:38:38 435.000
ZACube-1 26 Sep 22:45:09 22:48:21 21° 267° (W) 22:51:33 437.345
Oscar 11 26 Sep 22:45:33 22:48:58 23° 267° (W) 22:52:25 145.826/435.025
SO-50 26 Sep 22:48:33 22:50:24 12° 26° (NNE) 22:52:15 436.795
AISAT 26 Sep 22:58:48 23:00:32 12° 59° (ENE) 23:02:17 437.250
PRISM 26 Sep 23:12:20 23:16:09 36° 291° (WNW) 23:19:55 437.425
M-CUBED/EXP-1 PRIME 26 Sep 23:12:51 23:15:24 16° 60° (ENE) 23:17:52 437.505
UNISAT 6 26 Sep 23:13:31 23:17:29 32° 97° (E) 23:21:29 437.425
HUMSAT D 26 Sep 23:16:27 23:20:22 45° 261° (W) 23:24:20 437.325/437.525
Cosmos 2499 26 Sep 23:16:28 23:19:52 14° 284° (WNW) 23:23:22 435.465 / 435.565
AO-85 26 Sep 23:18:55 23:23:50 44° 312° (NW) 23:28:26 145.980
DELFI C3 26 Sep 23:18:56 23:22:03 22° 267° (W) 23:25:11 145.870
ISS 26 Sep 23:28:24 23:31:29 37° 342° (NNW) 23:34:35 145.825
DANDE 26 Sep 23:28:33 23:30:04 11° 313° (NW) 23:31:38 436.750
ESTCUBE 1 26 Sep 23:34:28 23:38:48 46° 71° (ENE) 23:43:10 437.505/2401.250
DX 1 26 Sep 23:37:29 23:40:25 18° 62° (ENE) 23:43:23 434.975-435.025
50 SAT 26 Sep 23:37:43 23:40:28 21° 66° (ENE) 23:43:15 437.505
VELOX 1 26 Sep 23:40:06 23:43:54 28° 66° (ENE) 23:47:42 145.980
CUBEBUG 1 26 Sep 23:47:22 23:51:31 40° 70° (ENE) 23:55:40 437.445
ANTELSAT 26 Sep 23:48:42 23:53:05 75° 101° (ESE) 23:57:34 437.575/2403.000
QB50P2 27 Sep 00:01:58 00:04:28 15° 91° (E) 00:06:58 145.880/145.840
RS-15 27 Sep 00:03:05 00:13:59 38° 334° (NNW) 00:25:17 29.354- 29.394
POLYITAN 1 27 Sep 00:04:11 00:06:42 15° 91° (E) 00:09:12 437.675
AUBIESAT-1 27 Sep 00:09:27 00:13:23 50° 68° (ENE) 00:17:03 437.475
TIGRISAT 27 Sep 00:09:40 00:14:01 71° 286° (WNW) 00:18:28 435.000
Cosmos 2491 27 Sep 00:23:22 00:25:04 11° 47° (NE) 00:26:46 435.465 / 435.565
SO-50 27 Sep 00:27:34 00:32:03 47° 48° (NE) 00:36:23 436.795
TISAT 1 27 Sep 00:27:35 00:28:19 10° 59° (ENE) 00:29:02 437.305
AISAT 27 Sep 00:31:53 00:36:21 84° 254° (WSW) 00:40:50 437.250
SPROUT 27 Sep 00:34:20 00:38:28 53° 73° (ENE) 00:42:39 437.525
DUCHIFAT 1 27 Sep 00:43:04 00:46:54 33° 97° (E) 00:50:41 145.980
QB50P1 27 Sep 00:43:40 00:47:37 39° 98° (E) 00:51:34 145.935-145.965
M-CUBED/EXP-1 PRIME 27 Sep 00:45:35 00:49:40 51° 254° (WSW) 00:53:27 437.505
UKube-1 27 Sep 00:45:42 00:49:58 66° 74° (ENE) 00:54:17 .
UNISAT 6 27 Sep 00:50:25 00:54:06 27° 293° (WNW) 00:57:50 437.425
BUGSAT 1 27 Sep 00:51:36 00:54:16 17° 92° (E) 00:56:54 437.445
JAS-2 27 Sep 00:56:28 01:04:06 50° 97° (E) 01:11:25 435.910
POPSAT HIP 1 27 Sep 00:56:57 01:01:05 54° 100° (E) 01:05:12 437.405
AO-85 27 Sep 01:03:37 01:05:24 12° 332° (NNW) 01:07:10 145.980
ISS 27 Sep 01:05:46 01:08:33 25° 2° (N) 01:11:20 145.825
50 SAT 27 Sep 01:10:38 01:13:50 29° 264° (W) 01:17:03 437.505
DX 1 27 Sep 01:11:58 01:16:14 51° 260° (W) 01:20:32 434.975-435.025
ESTCUBE 1 27 Sep 01:12:34 01:15:50 19° 268° (W) 01:19:08 437.505/2401.250
NANOSAT C BR1 27 Sep 01:14:08 01:18:21 80° 103° (ESE) 01:22:33 145.865
VELOX 1 27 Sep 01:16:17 01:20:16 31° 264° (W) 01:24:16 145.980
CUBEBUG 1 27 Sep 01:24:35 01:27:57 21° 267° (W) 01:31:20 437.445
ANTELSAT 27 Sep 01:27:12 01:29:16 13° 299° (WNW) 01:31:19 437.575/2403.000
QB50P2 27 Sep 01:36:28 01:40:35 51° 288° (WNW) 01:44:40 145.880/145.840
POLYITAN 1 27 Sep 01:38:42 01:42:48 51° 288° (WNW) 01:46:54 437.675
BEESAT 2 27 Sep 01:41:53 01:44:14 15° 111° (ESE) 01:46:36 435.950
ITUPSAT 1 27 Sep 01:43:11 01:46:00 16° 59° (ENE) 01:48:48 437.325
AUBIESAT-1 27 Sep 01:45:42 01:48:01 15° 261° (W) 01:50:15 437.475
SWISSCUBE 27 Sep 01:55:55 01:59:35 23° 63° (ENE) 02:03:16 437.505
TISAT 1 27 Sep 01:59:05 02:03:17 88° 258° (WSW) 02:07:30 437.305
SO-50 27 Sep 02:08:38 02:12:13 23° 247° (WSW) 02:15:45 436.795
BEESAT 27 Sep 02:08:43 02:12:39 26° 65° (ENE) 02:16:36 436.000
SPROUT 27 Sep 02:12:14 02:14:44 15° 269° (W) 02:17:15 437.525
Gurwin Techsat 1B 27 Sep 02:14:15 02:17:03 14° 88° (E) 02:19:50 435.225
Cosmos 2491 27 Sep 02:16:08 02:24:40 49° 73° (ENE) 02:33:07 435.465 / 435.565
DUCHIFAT 1 27 Sep 02:19:05 02:22:25 23° 294° (WNW) 02:25:45 145.980
QB50P1 27 Sep 02:20:00 02:23:10 21° 295° (WNW) 02:26:18 145.935-145.965
RS-15 27 Sep 02:20:40 02:31:05 30° 8° (N) 02:41:36 29.354- 29.394
UKube-1 27 Sep 02:24:30 02:26:28 13° 270° (W) 02:28:26 .
BEESAT 3 27 Sep 02:24:35 02:28:29 84° 124° (SE) 02:32:26 437.485
BUGSAT 1 27 Sep 02:26:02 02:29:51 42° 289° (WNW) 02:33:38 437.445
POPSAT HIP 1 27 Sep 02:33:53 02:36:27 16° 298° (WNW) 02:39:02 437.405
JAS-2 27 Sep 02:41:41 02:48:55 42° 296° (WNW) 02:55:58 435.910
ISS 27 Sep 02:42:22 02:45:34 46° 22° (NNE) 02:48:45 145.825
NANOSAT C BR1 27 Sep 02:52:07 02:53:28 11° 301° (WNW) 02:54:49 145.865
Oscar 19 27 Sep 03:03:43 03:08:55 79° 104° (ESE) 03:14:03 437.125/150
BEESAT 2 27 Sep 03:17:44 03:21:37 55° 309° (NW) 03:25:33 435.950
ITUPSAT 1 27 Sep 03:18:31 03:23:15 71° 257° (WSW) 03:28:04 437.325
YUBILEINY 27 Sep 03:18:42 03:26:51 44° 87° (E) 03:34:58 435.215
SWISSCUBE 27 Sep 03:32:32 03:37:05 46° 261° (W) 03:41:42 437.505
MOZHAYETS 4 27 Sep 03:44:53 03:49:06 39° 69° (ENE) 03:53:22
BEESAT 27 Sep 03:45:50 03:50:15 38° 262° (W) 03:54:43 436.000
Gurwin Techsat 1B 27 Sep 03:52:17 03:57:38 80° 286° (WNW) 04:02:56 435.225
AIST 2 27 Sep 03:54:28 03:56:45 15° 110° (ESE) 03:59:03 435.215
ITAMSAT 1 27 Sep 03:54:34 03:59:15 32° 96° (E) 04:03:54 435.822/435.867
BEESAT 3 27 Sep 04:04:20 04:06:41 15° 324° (NW) 04:09:03 437.485
AO-7 27 Sep 04:09:35 04:16:28 28° 94° (E) 04:23:18 29.400- 29.500
Cosmos 2491 27 Sep 04:13:18 04:21:22 41° 274° (W) 04:29:22 435.465 / 435.565
KKS-1 27 Sep 04:18:10 04:22:32 57° 72° (ENE) 04:26:54 437.445
ISS 27 Sep 04:19:00 04:21:59 32° 220° (SW) 04:24:57 145.825
JAS-2 27 Sep 04:30:45 04:31:54 10° 317° (NW) 04:33:02 435.910
RS-15 27 Sep 04:35:12 04:47:17 54° 40° (NE) 04:59:11 29.354- 29.394
Oscar 19 27 Sep 04:44:32 04:47:35 16° 302° (WNW) 04:50:38 437.125/150
Cosmos 2504 27 Sep 04:53:32 05:00:50 64° 93° (E) 05:07:54 435.465 / 435.565
STARS 27 Sep 04:54:51 04:59:11 67° 74° (ENE) 05:03:34 437.465
BEESAT 2 27 Sep 04:59:13 05:00:19 11° 329° (NNW) 05:01:25 435.950
CUBESAT XI-V 27 Sep 05:01:39 05:05:52 34° 68° (ENE) 05:10:06 437.345
CUSAT 1 27 Sep 05:14:00 05:19:18 19° 55° (NE) 05:24:12 437.405
YUBILEINY 27 Sep 05:15:19 05:23:37 45° 288° (WNW) 05:31:57 435.215
MOZHAYETS 4 27 Sep 05:22:44 05:26:23 23° 267° (W) 05:30:05
HORYU 2 27 Sep 05:29:13 05:31:11 13° 90° (E) 05:33:11 437.375
AIST 2 27 Sep 05:30:40 05:34:44 62° 308° (NW) 05:38:52 435.215
ITAMSAT 1 27 Sep 05:33:59 05:38:43 36° 294° (WNW) 05:43:26 435.822/435.867
Gurwin Techsat 1B 27 Sep 05:34:21 05:36:44 13° 305° (NW) 05:39:06 435.225
PCSat 27 Sep 05:34:35 05:39:56 66° 118° (ESE) 05:45:20 145.827
KKS-1 27 Sep 05:56:48 05:59:27 15° 269° (W) 06:02:07 437.445
AO-7 27 Sep 06:01:38 06:09:53 70° 293° (WNW) 06:18:06 29.400- 29.500
AIST 1 27 Sep 06:08:38 06:12:59 65° 96° (E) 06:17:21
AO-85 27 Sep 06:08:41 06:12:42 39° 47° (NE) 06:16:27 145.980
DANDE 27 Sep 06:32:50 06:40:08 32° 65° (ENE) 06:47:15 436.750
STARS 27 Sep 06:34:02 06:36:00 13° 270° (W) 06:37:58 437.465
CUBESAT XI-V 27 Sep 06:39:13 06:43:16 28° 266° (W) 06:47:21 437.345
GOMX 1 27 Sep 06:40:57 06:43:49 17° 89° (E) 06:46:36 467.674
BRITE-PL 27 Sep 06:45:22 06:50:06 46° 97° (E) 06:54:27 437.365/2234.400
RS-15 27 Sep 06:48:09 07:00:10 60° 246° (WSW) 07:11:53 29.354- 29.394
Cosmos 2504 27 Sep 06:48:52 06:54:46 25° 294° (WNW) 07:00:34 435.465 / 435.565
LilacSat-2 27 Sep 06:50:25 06:52:59 17° 92° (E) 06:55:31 437.200
CUSAT 1 27 Sep 06:54:50 07:02:47 78° 77° (ENE) 07:09:33 437.405
HORYU 2 27 Sep 07:03:46 07:08:13 69° 287° (WNW) 07:12:38 437.375
DOVE 4 27 Sep 07:08:03 07:09:56 13° 89° (E) 07:11:48 437.250
AIST 2 27 Sep 07:12:19 07:14:05 12° 329° (NNW) 07:15:50 435.215
NOAA 15 27 Sep 07:12:45 07:17:44 39° 98° (E) 07:22:39 137.62
STRAND 1 27 Sep 07:16:58 07:21:45 43° 68° (ENE) 07:26:34 437.568
PCSat 27 Sep 07:19:22 07:23:49 25° 318° (NW) 07:28:16 145.827
Cubesat XI-IV 27 Sep 07:25:16 07:30:21 41° 98° (E) 07:35:24 437.490
CUTE-I 27 Sep 07:25:44 07:30:50 42° 98° (E) 07:35:53 437.470
GONETS M04 27 Sep 07:45:25 07:49:58 15° 73° (ENE) 07:54:30
AIST 1 27 Sep 07:48:56 07:51:04 13° 294° (WNW) 07:53:12
AO-85 27 Sep 07:49:37 07:52:52 23° 247° (WSW) 07:55:58 145.980
AO-7 27 Sep 07:55:56 08:01:16 19° 315° (NW) 08:06:35 29.400- 29.500
O/OREOS (USA 219) 27 Sep 07:56:00 08:00:13 39° 107° (ESE) 08:04:30 437.305
NOAA 18 27 Sep 07:58:32 08:03:59 64° 103° (ESE) 08:09:25 137.9125
HO-68 27 Sep 08:06:57 08:11:51 19° 89° (E) 08:16:43 435.675
Cosmos 2499 27 Sep 08:11:14 08:14:50 15° 77° (ENE) 08:18:25 435.465 / 435.565
DANDE 27 Sep 08:15:14 08:23:32 69° 265° (W) 08:31:26 436.750
GOMX 1 27 Sep 08:17:58 08:22:17 48° 289° (WNW) 08:26:22 467.674
LilacSat-2 27 Sep 08:23:51 08:27:26 38° 289° (WNW) 08:31:00 437.200
BRITE-PL 27 Sep 08:24:29 08:28:14 22° 298° (WNW) 08:31:45 437.365/2234.400
CINEMA 3 27 Sep 08:25:39 08:28:59 23° 94° (E) 08:32:21 145.822/145.860
PRISM 27 Sep 08:28:54 08:32:03 21° 64° (ENE) 08:35:13 437.425
COMPASS 1 27 Sep 08:36:44 08:37:34 10° 88° (E) 08:38:25 437.405
CUSAT 1 27 Sep 08:38:07 08:43:48 23° 280° (W) 08:48:56 437.405
DOVE 4 27 Sep 08:43:56 08:48:07 58° 287° (WNW) 08:52:10 437.250
NOAA 15 27 Sep 08:52:47 08:57:22 31° 296° (WNW) 09:01:57 137.62
STRAND 1 27 Sep 08:56:54 09:01:05 26° 266° (W) 09:05:19 437.568
CUTE 1.7 + AOD 2 27 Sep 08:57:48 09:01:49 37° 97° (E) 09:05:48 437.475
CANX-2 27 Sep 08:58:47 09:02:56 44° 99° (E) 09:07:02 2200.000
SEEDS 27 Sep 09:01:08 09:04:52 29° 95° (E) 09:08:34 437.485
BEESAT 3 27 Sep 09:03:17 09:05:38 15° 36° (NE) 09:07:59 437.485
RS-15 27 Sep 09:04:54 09:09:46 13° 268° (W) 09:14:36 29.354- 29.394
Cubesat XI-IV 27 Sep 09:05:40 09:10:15 30° 296° (WNW) 09:14:49 437.490
CUTE-I 27 Sep 09:06:08 09:10:41 29° 296° (WNW) 09:15:14 437.470
AAUSAT CUBESAT 2 27 Sep 09:26:21 09:30:02 29° 95° (E) 09:33:41 437.432
O/OREOS (USA 219) 27 Sep 09:35:55 09:39:46 26° 306° (NW) 09:43:37 437.305
TIGRISAT 27 Sep 09:35:59 09:38:13 14° 61° (ENE) 09:40:27 435.000
GONETS M04 27 Sep 09:36:21 09:45:07 74° 94° (E) 09:53:58
CUBEBUG 2 27 Sep 09:38:42 09:42:43 38° 98° (E) 09:46:48 437.445
NOAA 18 27 Sep 09:40:11 09:44:10 21° 301° (WNW) 09:48:10 137.9125
FUNcube-1 27 Sep 09:48:58 09:52:13 21° 93° (E) 09:55:31 145.935
HO-68 27 Sep 09:53:12 10:00:24 84° 288° (WNW) 10:07:33 435.675
BEESAT 2 27 Sep 09:56:30 09:59:42 22° 41° (NE) 10:02:53 435.950
UWE-3 27 Sep 09:58:35 10:02:41 42° 98° (E) 10:06:52 435.000/436.395/437.385
Cosmos 2499 27 Sep 09:59:37 10:06:48 86° 96° (E) 10:13:54 435.465 / 435.565
DANDE 27 Sep 10:00:26 10:04:51 16° 284° (WNW) 10:09:12 436.750
CINEMA 3 27 Sep 10:02:29 10:06:13 33° 291° (WNW) 10:09:59 145.822/145.860
PRISM 27 Sep 10:03:13 10:07:07 38° 262° (W) 10:11:03 437.425
COMPASS 1 27 Sep 10:09:25 10:13:39 75° 285° (WNW) 10:17:51 437.405
UNISAT 6 27 Sep 10:14:22 10:18:15 35° 69° (ENE) 10:22:08 437.425
Oscar 11 27 Sep 10:29:30 10:33:49 56° 100° (E) 10:38:05 145.826/435.025
ZACube-1 27 Sep 10:29:48 10:34:04 58° 101° (E) 10:38:24 437.345
CUTE 1.7 + AOD 2 27 Sep 10:34:05 10:37:26 22° 294° (WNW) 10:40:47 437.475
CANX-2 27 Sep 10:35:22 10:38:28 20° 296° (WNW) 10:41:34 2200.000
SEEDS 27 Sep 10:36:51 10:40:30 28° 292° (WNW) 10:44:08 437.485
BEESAT 3 27 Sep 10:39:52 10:43:52 88° 234° (SW) 10:47:51 437.485
ANTELSAT 27 Sep 10:49:21 10:53:37 82° 78° (ENE) 10:57:54 437.575/2403.000
DELFI C3 27 Sep 10:53:22 10:57:11 40° 98° (E) 11:00:58 145.870
QB50P2 27 Sep 10:56:48 10:59:22 16° 63° (ENE) 11:01:57 145.880/145.840
HUMSAT D 27 Sep 10:57:52 11:01:20 24° 94° (E) 11:04:49 437.325/437.525
POLYITAN 1 27 Sep 10:59:02 11:01:36 16° 62° (ENE) 11:04:10 437.675
AAUSAT CUBESAT 2 27 Sep 11:01:52 11:05:26 27° 292° (WNW) 11:08:58 437.432
TIGRISAT 27 Sep 11:10:12 11:14:25 63° 259° (WSW) 11:18:40 435.000
JAS-2 27 Sep 11:11:13 11:16:41 28° 57° (ENE) 11:22:39 435.910
CUBEBUG 2 27 Sep 11:15:52 11:19:08 22° 294° (WNW) 11:22:26 437.445
FUNcube-1 27 Sep 11:24:35 11:28:36 40° 289° (WNW) 11:32:43 145.935
BEESAT 2 27 Sep 11:33:51 11:37:45 48° 240° (WSW) 11:41:36 435.950
GONETS M04 27 Sep 11:35:34 11:42:50 28° 296° (WNW) 11:50:11
UWE-3 27 Sep 11:35:44 11:38:53 20° 295° (WNW) 11:42:06 435.000/436.395/437.385
DUCHIFAT 1 27 Sep 11:36:45 11:40:28 32° 69° (ENE) 11:44:13 145.980
QB50P1 27 Sep 11:37:51 11:41:44 38° 70° (ENE) 11:45:38 145.935-145.965
HO-68 27 Sep 11:42:20 11:47:08 20° 308° (NW) 11:51:55 435.675
BUGSAT 1 27 Sep 11:43:32 11:46:10 17° 64° (ENE) 11:48:49 437.445
POPSAT HIP 1 27 Sep 11:51:04 11:55:08 51° 72° (ENE) 11:59:14 437.405
UNISAT 6 27 Sep 11:51:41 11:55:04 22° 266° (W) 11:58:27 437.425
Cosmos 2499 27 Sep 11:56:16 12:00:56 18° 299° (WNW) 12:05:35 435.465 / 435.565
Oscar 11 27 Sep 12:06:46 12:09:31 17° 297° (WNW) 12:12:15 145.826/435.025
ZACube-1 27 Sep 12:07:21 12:09:56 16° 297° (WNW) 12:12:31 437.345
NANOSAT C BR1 27 Sep 12:07:48 12:11:58 75° 76° (ENE) 12:16:11 145.865
AIST 2 27 Sep 12:12:10 12:15:32 23° 41° (NE) 12:18:54 435.215
AISAT 27 Sep 12:21:16 12:23:56 16° 91° (E) 12:26:35 437.250
PHONESAT 2.4 27 Sep 12:23:50 12:26:02 19° 162° (SSE) 12:28:15 2401.200-2431.200
DELFI C3 27 Sep 12:28:54 12:31:45 19° 295° (WNW) 12:34:34 145.870
QB50P2 27 Sep 12:30:39 12:34:46 54° 260° (W) 12:38:55 145.880/145.840
POLYITAN 1 27 Sep 12:32:53 12:37:00 54° 260° (W) 12:41:08 437.675
HUMSAT D 27 Sep 12:33:11 12:36:59 33° 291° (WNW) 12:40:50 437.325/437.525
50 SAT 27 Sep 12:36:34 12:39:10 18° 93° (E) 12:41:45 437.505
PCSat 27 Sep 12:37:58 12:41:39 18° 36° (NE) 12:45:20 145.827
Oscar 19 27 Sep 12:45:02 12:48:49 21° 61° (ENE) 12:52:36 437.125/150
JAS-2 27 Sep 12:54:37 13:01:03 67° 259° (W) 13:08:21 435.910
DX 1 27 Sep 12:58:34 13:02:01 23° 94° (E) 13:05:26 434.975-435.025
ESTCUBE 1 27 Sep 13:01:20 13:05:54 78° 103° (ESE) 13:10:26 437.505/2401.250
VELOX 1 27 Sep 13:03:50 13:08:00 40° 98° (E) 13:12:08 145.980
CUBEBUG 1 27 Sep 13:09:48 13:14:07 61° 102° (ESE) 13:18:23 437.445
DUCHIFAT 1 27 Sep 13:12:48 13:16:12 24° 266° (W) 13:19:36 145.980
QB50P1 27 Sep 13:14:28 13:17:38 20° 267° (W) 13:20:48 145.935-145.965
BUGSAT 1 27 Sep 13:17:14 13:21:12 47° 260° (W) 13:25:10 437.445
AUBIESAT-1 27 Sep 13:20:49 13:23:22 20° 101° (E) 13:25:55 437.475
AO-7 27 Sep 13:24:09 13:27:31 13° 38° (NE) 13:30:53 29.400- 29.500
YUBILEINY 27 Sep 13:26:19 13:33:09 25° 62° (ENE) 13:39:54 435.215
POPSAT HIP 1 27 Sep 13:28:45 13:31:13 15° 269° (W) 13:33:43 437.405
Gurwin Techsat 1B 27 Sep 13:36:35 13:41:05 29° 64° (ENE) 13:45:36 435.225
TISAT 1 27 Sep 13:42:53 13:44:30 12° 89° (E) 13:46:08 437.305
NANOSAT C BR1 27 Sep 13:47:33 13:48:13 10° 272° (W) 13:48:53 145.865
AIST 2 27 Sep 13:50:11 13:54:17 51° 240° (WSW) 13:58:21 435.215
SPROUT 27 Sep 13:53:48 13:58:04 80° 101° (E) 14:02:20 437.525
AISAT 27 Sep 13:56:26 14:00:45 54° 288° (WNW) 14:05:01 437.250
M-CUBED/EXP-1 PRIME 27 Sep 13:57:05 14:00:24 80° 109° (ESE) 14:03:39 437.505
PHONESAT 2.4 27 Sep 13:59:03 14:01:44 33° 178° (S) 14:04:27 2401.200-2431.200
UKube-1 27 Sep 14:06:35 14:10:56 89° 274° (W) 14:15:15 .
50 SAT 27 Sep 14:09:26 14:12:45 32° 290° (WNW) 14:16:03 437.505
PCSat 27 Sep 14:20:29 14:25:57 80° 57° (ENE) 14:31:22 145.827
Oscar 19 27 Sep 14:22:34 14:27:42 60° 259° (W) 14:32:51 437.125/150
DX 1 27 Sep 14:34:19 14:38:18 36° 291° (WNW) 14:42:17 434.975-435.025
ESTCUBE 1 27 Sep 14:39:54 14:42:05 13° 301° (WNW) 14:44:16 437.505/2401.250
VELOX 1 27 Sep 14:40:50 14:44:14 22° 296° (WNW) 14:47:36 145.980
Cosmos 2504 27 Sep 14:43:01 14:48:59 26° 66° (ENE) 14:55:11 435.465 / 435.565
JAS-2 27 Sep 14:45:44 14:47:41 11° 281° (W) 14:49:42 435.910
CUBEBUG 1 27 Sep 14:47:25 14:49:55 15° 299° (WNW) 14:52:23 437.445
AUBIESAT-1 27 Sep 14:55:08 14:57:51 24° 297° (WNW) 15:00:32 437.475
AO-7 27 Sep 15:10:28 15:18:17 48° 61° (ENE) 15:26:07 29.400- 29.500
ITAMSAT 1 27 Sep 15:14:20 15:19:25 60° 71° (ENE) 15:24:32 435.822/435.867
Gurwin Techsat 1B 27 Sep 15:15:50 15:20:51 42° 262° (W) 15:25:54 435.225
TISAT 1 27 Sep 15:16:27 15:20:35 65° 287° (WNW) 15:24:43 437.305
ITUPSAT 1 27 Sep 15:17:24 15:21:22 25° 94° (E) 15:25:20 437.325
Cosmos 2491 27 Sep 15:19:36 15:27:58 52° 89° (E) 15:36:24 435.465 / 435.565
YUBILEINY 27 Sep 15:22:17 15:31:01 81° 264° (W) 15:39:42 435.215
SWISSCUBE 27 Sep 15:30:29 15:34:57 38° 98° (E) 15:39:25 437.505
SPROUT 27 Sep 15:31:52 15:33:23 12° 301° (WNW) 15:34:55 437.525
PHONESAT 2.4 27 Sep 15:35:04 15:37:29 23° 195° (SSW) 15:39:55 2401.200-2431.200
BEESAT 27 Sep 15:43:26 15:48:04 45° 99° (E) 15:52:38 436.000
UKube-1 27 Sep 15:45:14 15:46:17 11° 302° (WNW) 15:47:18 .
PCSat 27 Sep 16:05:26 16:08:39 16° 256° (WSW) 16:11:51 145.827
AIST 1 27 Sep 16:14:17 16:17:29 20° 70° (ENE) 16:20:38
BRITE-PL 27 Sep 16:22:36 16:24:39 12° 56° (NE) 16:26:42 437.365/2234.400
SO-50 27 Sep 16:23:07 16:27:56 69° 122° (ESE) 16:32:42 436.795
O/OREOS (USA 219) 27 Sep 16:25:33 16:28:20 16° 48° (NE) 16:31:05 437.305
HORYU 2 27 Sep 16:28:59 16:31:44 16° 61° (ENE) 16:34:30 437.375
Cosmos 2504 27 Sep 16:35:38 16:42:57 68° 266° (W) 16:50:45 435.465 / 435.565
ITUPSAT 1 27 Sep 16:54:50 16:59:19 40° 292° (WNW) 17:03:47 437.325
ITAMSAT 1 27 Sep 16:55:44 16:59:18 19° 269° (W) 17:02:53 435.822/435.867
NOAA 15 27 Sep 16:58:52 17:01:02 13° 54° (NE) 17:03:10 137.62
